CZ-6A DEB, 61103

Orbit data source: Space-Track

CZ-6A DEB, 61103 is space debris in LEO originally from a launch on Tue, 06 Aug 2024 UTC launched from the Taiyaun Space Center, China (TSC). Debris objects in space refer to the collection of defunct objects orbiting the Earth. Examples of debris include non-operational satellites, rocket bodies, and fragments generated from explosions, collisions, or faulty payload assembly.

Loading next visibility...
Identifier
61103, 2024-140NV
Orbit
LEO
Country
Flag of CNCN / PRC
Related business
Manufacturer
SAST
Mission
Spacecraft
Bus & Motor
Unknown
Mass
Unknown
Launch date (UTC)
2024-08-06 (2 years ago)
Launch vehicle
Unknown
Launch site
Taiyaun Space Center, China (TSC)
Object type
Payload
Rocket body
Debris
Shape & HBR
Unknown shape, 0.2 m
Radar Cross Section
Medium (>0.1 m² and <1 m²)

Expand to show TLE details & history
Last TLE update: 15 hours ago

TLE from 15 hours ago
0 CZ-6A DEB
1 61103U 24140NV  26171.23008913  .00000437  00000-0  13329-3 0  9990
2 61103  88.9760 269.6914 0041662 272.7718  86.8715 14.39902301 95091
Epoch: 2026-06-20T05:31Z
TLE epoch observation values (Epoch: 2026-06-20T05:31:19.700Z)
Latitude
-0.00004°
Longitude
-81.58838°
Altitude
760.403 km
Speed
7.475 km/s
True Right ascension
17h 58m 45s
True Declination
0° 00' 00"
Sunlit
Object was in full shadow at epoch
Visualization orbit readout
Latitude
Unknown
Longitude
Unknown
Altitude
Unknown
Speed
Unknown
Apparent Right ascension
Unknown
Apparent Declination
Unknown
Sunlit
N/A
Visualization observer readout
Local Sidereal Time
07:21:48
Azimuth
Unknown
Elevation
Unknown
Doppler factor
Unknown
Orbital elements
Apogee altitude
785.465 km
Perigee altitude
726.023 km
Semi-major axis
7,133.881 km
Eccentricity
0.00417
Inclination
88.976°
RAAN
269.6914°
Arg. of periapsis
272.7718°
True anomaly
87.34833°
Mean anomaly
86.8715°
Eccentric anomaly
87.1099°
Mean motion
3.60209 °/min
Orbital period
99.94 mins
BSTAR
0.00013329
Loading maneuver chart data...
Computing Atmospheric mass density...
Loading historical data...
Loading historical data...
Loading historical data...
Loading historical data...
Loading historical data...
Loading historical data...
Loading historical data...

Documentation

Showing up to 5 results
|